OBJECT M, 65561

Orbit data source: Space-Track

You're viewing an Uncataloged Satellite

Recently launched and/or uncataloged satellites may have evolving metadata. Metadata may include but not limited to: Owner, Maufacturer, Bus, Motor, and Mission.

OBJECT M, 65561 is a satellite owned by Changzheng H. (CN) in LEO that was launched on Mon, 08 Sep 2025 UTC launched from the Yellow Sea Launch Area, China (YSLA). Unknown objects in Earth's orbit typically refer to objects detected orbiting the Earth but have not yet been identified or cataloged. These objects could be anything from previously untracked satellites, spent rocket stages, debris from satellite collisions, or even natural meteoroids temporarily captured by Earth's gravity.

Loading next visibility...
Identifier
65561, 2025-201M
Orbit
LEO
Country
Flag of CNCN / PRC
Related business
Manufacturer
Changzheng H.
Mission
Spacecraft
Bus & Motor
Unknown
Mass
Unknown
Launch date (UTC)
2025-09-08 (1 week ago)
Launch vehicle
Unknown
Launch site
Yellow Sea Launch Area, China (YSLA)
Object type
Unknown
Shape & HBR
Unknown
Radar Cross Section
Medium (>0.1 m² and <1 m²)

Expand to show TLE details & history
Last TLE update: 2 days ago

TLE from 2 days ago
0 OBJECT M
1 65561U 25201M   25258.20145062  .00030523  00000-0  57705-3 0  9995
2 65561  50.0796 233.4851 0185960  10.0413 350.4182 15.31429783   978
Epoch: 2025-09-15T04:50Z
TLE epoch observation values (Epoch: 2025-09-15T04:50:05.333Z)
Latitude
-0.00004°
Longitude
166.55334°
Altitude
346.584 km
Speed
7.772 km/s
True Right ascension
15h 33m 56s
True Declination
0° 00' 00"
Sunlit
Object was in daylight at epoch
Visualization orbit readout
Latitude
Unknown
Longitude
Unknown
Altitude
Unknown
Speed
Unknown
Apparent Right ascension
Unknown
Apparent Declination
Unknown
Sunlit
N/A
Visualization observer readout
Local Sidereal Time
00:40:43
Azimuth
Unknown
Elevation
Unknown
Doppler factor
Unknown
Orbital elements
Apogee altitude
599.698 km
Perigee altitude
344.916 km
Semi-major axis
6,850.444 km
Eccentricity
0.0186
Inclination
50.0796°
RAAN
233.4851°
Arg. of periapsis
10.0413°
True anomaly
350.05518°
Mean anomaly
350.4182°
Eccentric anomaly
350.23753°
Mean motion
3.82794 °/min
Orbital period
94.05 mins
BSTAR
0.00057705
Loading maneuver chart data...
Computing Atmospheric mass density...
Loading historical data...
Loading historical data...
Loading historical data...
Loading historical data...
Loading historical data...
Loading historical data...
Loading historical data...

Documentation

Showing up to 5 results
|